STARLINK-34091, 63808

Orbit data source: Space-Track

STARLINK-34091, 63808 is a payload satellite owned by SpaceX/Seattle (US) in LEO that was launched on Sun, 04 May 2025 UTC via an FALCON 9 launch vehicle from the Air Force Eastern Test Range (AFETR). Payload-class satellites include a variety of spacecraft equipped with specific instruments for various scientific and technological missions. These include communications satellites like Starlink; space stations such as the ISS; scientific satellites like the Hubble; Earth observation satellites from companies like Planet Labs, Umbra, and HawkEye 360; GPS; miniature CubeSats for education and research; and military/defense satellites.

Loading next visibility...
Identifier
63808, 2025-092E
Orbit
LEO
Last TLE update
11 hours ago
Origin
Manufacturer
SpaceX/Seattle
Mission
Operational Commercial Communications
Bus & Motor
STARLINK V2MO, Unknown motor
Mass
575 kg wet, ~530 kg dry
Launch date (UTC)
2025-05-04 (2 months ago)
Launch vehicle
FALCON 9
Launch site
Air Force Eastern Test Range (AFETR)
Object type
Payload
Rocket body
Debris
Shape & HBR
Box + 1 Pan, 29 m
Radar Cross Section
41.120 m², Large (>1 m²)

Expand to show TLE details & history

TLE from 11 hours ago
0 STARLINK-34091
1 63808U 25092E   25189.14666651  .00014382  00000-0  53099-3 0  9990
2 63808  43.0018 113.7062 0001251 271.8348  88.2361 15.27588663 11264
Epoch: 2025-07-08T03:31Z
TLE epoch observation values (Epoch: 2025-07-08T03:31:11.986Z)
Latitude
0.00002°
Longitude
134.56045°
Altitude
482.772 km
Speed
7.626 km/s
True Right ascension
07h 34m 49s
True Declination
0° 00' 00"
Sunlit
Object was in daylight at epoch
Visualization orbit readout
Latitude
-36.81172°
Longitude
79.08831°
Altitude
492.938 km
Speed
7.619 km/s
Apparent Right ascension
08h 02m 47s
Apparent Declination
-75° 11' 59"
Sunlit
Object is in daylight
Visualization observer readout
Local Sidereal Time
02:20:58
Azimuth
161.351° S
Elevation
-37.218°
Doppler factor
1
Orbital elements
Apogee altitude
485.827 km
Perigee altitude
484.109 km
Semi-major axis
6,863.105 km
Eccentricity
0.00013
Inclination
43.0018°
RAAN
113.7062°
Arg. of periapsis
271.8348°
True anomaly
Unknown
Mean anomaly
88.2361°
Eccentric anomaly
Unknown
Mean motion
3.81735 °/min
Orbital period
94.31 mins
BSTAR
0.00053099
Loading maneuver chart data...
Loading SW <> Apogee altitude chart data...
Loading historical data...
Loading historical data...
Loading historical data...
Loading historical data...
Loading historical data...
Loading historical data...
Loading historical data...

STARLINK-34091 Visibility forecast

Observer location: undefined°, undefined°

Span
Click to sort rows by Start time (UTC) header in descending order
Start Az.
Max El. time (UTC)
Max El. Az.
Max El.
End time (UTC)
End Az.
5 mins2025-07-08 22:35:18.028Z219.518° SW2025-07-08 22:37:18.028Z149.462° SSE37.873°2025-07-08 22:40:18.028Z80.031° E
5 mins2025-07-09 00:14:18.028Z279.941° WNW2025-07-09 00:16:18.028Z0.655° NNE40.395°2025-07-09 00:19:18.028Z69.546° E
5 mins2025-07-09 01:53:18.028Z296.169° NW2025-07-09 01:55:18.028Z359.985° N40.364°2025-07-09 01:58:18.028Z86.606° E
5 mins2025-07-09 03:32:18.028Z273.206° WNW2025-07-09 03:34:18.028Z210.134° SW38.027°2025-07-09 03:37:18.028Z132.539° SE
|